When you browse on this site, cookies collect data to enhance your experience and personalize the content and advertising you see.
Visit our Privacy Policy to learn more. By continuing to use the site, you agree to this use of cookies and data.
  • In Czech Republic
  • List of Countries
  • For 7 days
  • Water Temperature
  • Satellite Maps
  • Weather Map
  • Weather Widgets
  • user-avatar
    Login

    Hourly Weather Perekol

    Today, 21 May, Tuesday

    Time Temperature Precipitation Wind Pressure Humidity
    00:00 +18°C° 0 mm 4 mps 747 mmHg 75%
    01:00 +17°C° 0 mm 4 mps 747 mmHg 75%
    02:00 +17°C° 0 mm 4 mps 747 mmHg 76%
    03:00 +17°C° 0 mm 4 mps 747 mmHg 76%
    04:00 +15°C° 0 mm 4 mps 747 mmHg 76%
    05:00 +15°C° 0 mm 4 mps 746 mmHg 76%
    06:00 +16°C° 0 mm 5 mps 746 mmHg 72%
    07:00 +19°C° 0 mm 5 mps 746 mmHg 69%
    08:00 +20°C° 0 mm 6 mps 746 mmHg 64%
    09:00 +22°C° 0 mm 6 mps 746 mmHg 59%
    10:00 +23°C° 0 mm 6 mps 746 mmHg 55%
    11:00 +24°C° 0 mm 6 mps 746 mmHg 50%
    12:00 +24°C° 0 mm 6 mps 746 mmHg 51%
    13:00 +24°C° 0 mm 7 mps 745 mmHg 52%
    14:00 +25°C° 0 mm 5 mps 745 mmHg 53%
    15:00 +23°C° 0.2 mm 5 mps 745 mmHg 62%
    16:00 +21°C° 0.2 mm 5 mps 744 mmHg 70%
    17:00 +20°C° 0.2 mm 5 mps 744 mmHg 79%
    18:00 +19°C° 0 mm 4 mps 744 mmHg 82%
    19:00 +19°C° 0 mm 4 mps 744 mmHg 84%
    20:00 +18°C° 0 mm 4 mps 744 mmHg 86%
    21:00 +17°C° 0 mm 4 mps 743 mmHg 89%
    22:00 +17°C° 0 mm 3 mps 743 mmHg 92%
    23:00 +16°C° 0 mm 3 mps 743 mmHg 94%

    Tomorrow, 22 May, Wednesday

    Time Temperature Precipitation Wind Pressure Humidity
    00:00 +16°C° 0 mm 3 mps 743 mmHg 95%
    01:00 +14°C° 0 mm 3 mps 743 mmHg 97%
    02:00 +14°C° 0 mm 3 mps 743 mmHg 98%
    03:00 +13°C° 0 mm 3 mps 743 mmHg 98%
    04:00 +14°C° 0 mm 2 mps 743 mmHg 98%
    05:00 +14°C° 0 mm 2 mps 743 mmHg 98%
    06:00 +16°C° 0 mm 2 mps 743 mmHg 90%
    07:00 +17°C° 0 mm 3 mps 743 mmHg 82%
    08:00 +19°C° 0 mm 3 mps 743 mmHg 75%
    09:00 +20°C° 0 mm 3 mps 743 mmHg 68%
    10:00 +21°C° 0 mm 2 mps 743 mmHg 61%
    11:00 +24°C° 0 mm 2 mps 743 mmHg 54%
    12:00 +24°C° 0 mm 2 mps 743 mmHg 51%
    13:00 +25°C° 0 mm 2 mps 742 mmHg 48%
    14:00 +25°C° 0 mm 2 mps 742 mmHg 45%
    15:00 +25°C° 0 mm 2 mps 742 mmHg 47%
    16:00 +25°C° 0 mm 1 mps 742 mmHg 48%
    17:00 +25°C° 0 mm 1 mps 742 mmHg 50%
    18:00 +23°C° 0 mm 1 mps 742 mmHg 55%
    19:00 +21°C° 0 mm 1 mps 742 mmHg 60%
    20:00 +19°C° 0 mm 1 mps 741 mmHg 66%
    21:00 +18°C° 0 mm 1 mps 742 mmHg 69%
    22:00 +18°C° 0 mm 1 mps 742 mmHg 71%
    23:00 +16°C° 0 mm 1 mps 742 mmHg 74%

    Day after tomorrow, 23 May, Thursday

    Time Temperature Precipitation Wind Pressure Humidity
    00:00 +15°C° 0 mm 1 mps 742 mmHg 77%
    01:00 +13°C° 0 mm 0 mps 742 mmHg 81%
    02:00 +13°C° 0 mm 0 mps 742 mmHg 84%
    03:00 +13°C° 0 mm 0 mps 742 mmHg 84%
    04:00 +13°C° 0 mm 0 mps 742 mmHg 84%
    05:00 +13°C° 0 mm 0 mps 742 mmHg 84%
    06:00 +16°C° 0 mm 0 mps 742 mmHg 76%
    07:00 +20°C° 0 mm 1 mps 742 mmHg 69%
    08:00 +22°C° 0 mm 1 mps 742 mmHg 62%
    09:00 +23°C° 0 mm 1 mps 742 mmHg 56%
    10:00 +25°C° 0 mm 1 mps 742 mmHg 50%
    11:00 +26°C° 0 mm 1 mps 742 mmHg 45%
    12:00 +26°C° 0 mm 2 mps 742 mmHg 45%
    13:00 +26°C° 0 mm 2 mps 742 mmHg 44%
    14:00 +26°C° 0 mm 2 mps 742 mmHg 44%
    15:00 +26°C° 0 mm 2 mps 742 mmHg 46%
    16:00 +26°C° 0 mm 2 mps 742 mmHg 48%
    17:00 +26°C° 0 mm 2 mps 741 mmHg 50%
    18:00 +24°C° 0 mm 1 mps 742 mmHg 54%
    19:00 +23°C° 0 mm 1 mps 742 mmHg 59%
    20:00 +21°C° 0 mm 1 mps 742 mmHg 63%
    21:00 +20°C° 0 mm 1 mps 742 mmHg 66%
    22:00 +19°C° 0 mm 1 mps 742 mmHg 70%
    23:00 +18°C° 0 mm 1 mps 742 mmHg 73%

    24 May, Friday

    Time Temperature Precipitation Wind Pressure Humidity
    00:00 +16°C° 0 mm 1 mps 742 mmHg 76%
    01:00 +16°C° 0 mm 1 mps 742 mmHg 78%
    02:00 +15°C° 0 mm 1 mps 742 mmHg 81%
    03:00 +15°C° 0 mm 1 mps 742 mmHg 82%
    04:00 +15°C° 0 mm 1 mps 742 mmHg 83%
    05:00 +15°C° 0 mm 1 mps 742 mmHg 84%
    06:00 +18°C° 0 mm 1 mps 742 mmHg 77%
    07:00 +21°C° 0 mm 1 mps 742 mmHg 70%
    08:00 +23°C° 0 mm 1 mps 742 mmHg 63%
    09:00 +24°C° 0 mm 1 mps 742 mmHg 57%
    10:00 +25°C° 0 mm 2 mps 742 mmHg 52%
    11:00 +26°C° 0 mm 2 mps 742 mmHg 46%
    12:00 +26°C° 0.1 mm 2 mps 742 mmHg 48%
    13:00 +26°C° 0.1 mm 2 mps 742 mmHg 49%
    14:00 +26°C° 0.1 mm 3 mps 742 mmHg 50%
    15:00 +26°C° 0.3 mm 3 mps 742 mmHg 54%
    16:00 +25°C° 0.3 mm 3 mps 741 mmHg 57%
    17:00 +25°C° 0.3 mm 3 mps 741 mmHg 60%
    18:00 +23°C° 0.3 mm 2 mps 741 mmHg 70%
    19:00 +20°C° 0.3 mm 2 mps 741 mmHg 80%
    20:00 +18°C° 0.3 mm 2 mps 741 mmHg 89%
    21:00 +17°C° 0.1 mm 2 mps 741 mmHg 91%
    22:00 +17°C° 0.1 mm 2 mps 741 mmHg 93%
    23:00 +16°C° 0.1 mm 2 mps 741 mmHg 95%

    25 May, Saturday

    Time Temperature Precipitation Wind Pressure Humidity
    00:00 +16°C° 0.1 mm 1 mps 741 mmHg 96%
    01:00 +15°C° 0.1 mm 1 mps 740 mmHg 96%
    02:00 +15°C° 0.1 mm 1 mps 740 mmHg 96%
    03:00 +15°C° 0.1 mm 1 mps 740 mmHg 96%
    04:00 +15°C° 0.1 mm 2 mps 740 mmHg 97%
    05:00 +15°C° 0.1 mm 2 mps 740 mmHg 97%
    06:00 +15°C° 0.2 mm 2 mps 740 mmHg 95%
    07:00 +16°C° 0.2 mm 2 mps 740 mmHg 93%
    08:00 +16°C° 0.2 mm 3 mps 740 mmHg 91%
    09:00 +17°C° 0.3 mm 3 mps 740 mmHg 85%
    10:00 +18°C° 0.3 mm 3 mps 740 mmHg 80%
    11:00 +19°C° 0.3 mm 4 mps 740 mmHg 74%
    12:00 +20°C° 0 mm 4 mps 740 mmHg 67%
    13:00 +21°C° 0 mm 4 mps 740 mmHg 59%
    14:00 +22°C° 0 mm 5 mps 740 mmHg 52%
    15:00 +22°C° 0 mm 4 mps 739 mmHg 51%
    16:00 +22°C° 0 mm 4 mps 739 mmHg 50%
    17:00 +21°C° 0 mm 4 mps 739 mmHg 49%
    18:00 +20°C° 0 mm 4 mps 739 mmHg 57%
    19:00 +18°C° 0 mm 3 mps 739 mmHg 65%
    20:00 +16°C° 0 mm 3 mps 739 mmHg 73%
    21:00 +14°C° 0 mm 3 mps 739 mmHg 78%
    22:00 +13°C° 0 mm 3 mps 740 mmHg 83%
    23:00 +13°C° 0 mm 4 mps 740 mmHg 88%

    26 May, Sunday

    Time Temperature Precipitation Wind Pressure Humidity
    00:00 +12°C° 0 mm 4 mps 740 mmHg 88%
    01:00 +11°C° 0 mm 3 mps 740 mmHg 88%
    02:00 +10°C° 0 mm 3 mps 740 mmHg 87%
    03:00 +9°C° 0 mm 3 mps 740 mmHg 88%
    04:00 +9°C° 0 mm 3 mps 741 mmHg 89%
    05:00 +8°C° 0 mm 3 mps 741 mmHg 89%
    06:00 +10°C° 0 mm 3 mps 741 mmHg 83%
    07:00 +11°C° 0 mm 4 mps 741 mmHg 77%
    08:00 +13°C° 0 mm 4 mps 741 mmHg 71%
    09:00 +13°C° 0 mm 4 mps 741 mmHg 70%
    10:00 +13°C° 0 mm 4 mps 741 mmHg 69%
    11:00 +14°C° 0 mm 5 mps 741 mmHg 69%
    12:00 +14°C° 0.1 mm 5 mps 741 mmHg 67%
    13:00 +14°C° 0.1 mm 5 mps 740 mmHg 65%
    14:00 +14°C° 0.1 mm 5 mps 740 mmHg 64%
    15:00 +14°C° 0.1 mm 5 mps 740 mmHg 66%
    16:00 +14°C° 0.1 mm 5 mps 740 mmHg 69%
    17:00 +14°C° 0.1 mm 5 mps 739 mmHg 71%
    18:00 +13°C° 0.1 mm 4 mps 739 mmHg 75%
    19:00 +13°C° 0.1 mm 4 mps 739 mmHg 78%
    20:00 +12°C° 0.1 mm 4 mps 739 mmHg 82%
    21:00 +11°C° 0 mm 4 mps 739 mmHg 85%
    22:00 +11°C° 0 mm 4 mps 739 mmHg 88%
    23:00 +10°C° 0 mm 4 mps 739 mmHg 90%
    Show more